Flag for Sweden Weather past 2 weeks in Örebro, Sweden

Now
54 °F

Passing clouds.


Feels Like: 53 °F
Forecast: 48 / 64 °F
Wind: 5 mph from Southeast

Location: Orebro Private

Current Time: Aug 23, 2014 at 2:06:56 AM

Latest Report: Aug 23, 2014 at 1:20 AM


Visibility: N/A

Pressure: 29.68 "Hg

Humidity: 94%

Dew point: 52 °F

Location of ÖrebroLocation

Historic Weather in Örebro — Graph

°F

Örebro temperature yesterday

Maximum temperature yesterday: 64 °F (at 3:50 PM)
Minimum temperature yesterday: 50 °F (at 6:20 AM)
Average temperature yesterday: 57 °F

Past Weeks' High & Low Weather Summary

 TemperatureHumidityPressure
High81 °F (Aug 9, 3:20 PM)100% (Aug 9, 2:20 AM)29.95 "Hg (Aug 9, 2:20 AM)
Low41 °F (Aug 19, 3:50 AM)44% (Aug 10, 5:50 PM)29.27 "Hg (Aug 18, 10:20 AM)
Average60 °F84%29.61 "Hg
* Reported Aug 8 12:20 AM — Aug 23 12:50 AM, Örebro, Weather by CustomWeather, © 2014

Note: Actual official high and low records may vary slightly from our data, if they occured in-between our weather recording intervals... More about our weather records

Advertising

Örebro weather history for previous 24 hours

 ConditionsComfort  
Time TempWeatherWind HumidityBarometerVisibility
12:50 AM
Aug 23
54 °FLight rain. Passing clouds.5 mph94%29.68 "HgN/A
12:20 AM55 °FOvercast.5 mph88%29.68 "HgN/A
11:50 PM
Aug 22
55 °FPassing clouds.5 mph88%29.68 "HgN/A
11:20 PM55 °FOvercast.5 mph88%29.71 "HgN/A
10:50 PM55 °FMostly cloudy.5 mph88%29.71 "HgN/A
10:20 PM55 °FOvercast.5 mph88%29.71 "HgN/A
9:50 PM57 °FOvercast.8 mph82%29.71 "HgN/A
9:20 PM57 °FPartly sunny.7 mph82%29.71 "HgN/A
8:50 PM57 °FSunny.7 mph82%29.71 "Hg10 mi
8:20 PM57 °FSunny.8 mph82%29.71 "Hg10 mi
7:50 PM59 °FSunny.8 mph82%29.71 "Hg10 mi
6:50 PM61 °FSunny.9 mph72%29.71 "Hg10 mi
6:20 PM63 °FSunny.9 mph68%29.71 "Hg10 mi
5:50 PM63 °FPassing clouds.13 mph64%29.71 "HgN/A
5:20 PM63 °FScattered clouds.13 mph64%29.71 "HgN/A
4:50 PM63 °FScattered clouds.12 mph68%29.71 "HgN/A
4:20 PM61 °FScattered clouds.9 mph72%29.71 "HgN/A
3:50 PM64 °FPassing clouds.12 mph64%29.71 "HgN/A
3:20 PM61 °FSunny.9 mph72%29.74 "Hg10 mi
2:50 PM63 °FPartly sunny.14 mph68%29.74 "HgN/A
2:20 PM63 °FDrizzle. Broken clouds.15 mph68%29.74 "HgN/A
1:50 PM63 °FSunny.14 mph64%29.74 "Hg10 mi
1:20 PM61 °FSunny.9 mph68%29.74 "Hg10 mi
12:50 PM63 °FPartly sunny.14 mph64%29.74 "HgN/A
12:20 PM59 °FScattered showers. Scattered clouds.10 mph77%29.74 "HgN/A
11:50 AM61 °FScattered clouds.15 mph68%29.74 "HgN/A
11:20 AM61 °FScattered clouds.13 mph72%29.74 "HgN/A
10:50 AM59 °FScattered clouds.15 mph72%29.74 "HgN/A
10:20 AM59 °FPartly sunny.10 mph77%29.74 "HgN/A
9:50 AM57 °FPartly sunny.14 mph82%29.74 "HgN/A
9:20 AM57 °FPartly sunny.13 mph82%29.74 "HgN/A
8:50 AM55 °FPartly sunny.7 mph88%29.74 "HgN/A
8:20 AM54 °FPassing clouds.8 mph88%29.71 "HgN/A
7:50 AM52 °FSunny.8 mph94%29.71 "Hg10 mi
7:20 AM50 °FSunny.8 mph94%29.71 "Hg10 mi
6:50 AM50 °FSunny.9 mph94%29.71 "Hg10 mi
6:20 AM50 °FClear.8 mph100%29.71 "Hg10 mi
5:50 AM52 °FClear.8 mph94%29.71 "Hg10 mi
5:20 AM52 °FLight rain. Passing clouds.9 mph100%29.71 "HgN/A
4:20 AM54 °FPartly cloudy.10 mph94%29.71 "HgN/A
3:50 AM54 °FPassing clouds.8 mph94%29.71 "HgN/A
3:20 AM54 °FPassing clouds.9 mph94%29.71 "HgN/A
2:50 AM54 °FPassing clouds.8 mph100%29.68 "HgN/A
2:20 AM54 °FOvercast.9 mph100%29.68 "HgN/A
Weather by CustomWeather, © 2014

See weather overviewHow to use our weather pages